Home > Weather > Lewiston > Past weeks

Flag for USA Past Weather in Lewiston, Idaho, USA — Yesterday and Last 2 Weeks

Now
79 °F

Clear.


Feels Like: 79 °F
Forecast: 64 / 88 °F
Wind: 14 mph from Northwest

Location: Lewiston-Nez Perce County Airport

Current Time: Aug 28, 2016 at 12:08:57 AM

Latest Report: Aug 27, 2016 at 10:56 PM


Visibility: 10 mi

Pressure: 29.78 "Hg

Humidity: 35%

Dew Point: 49 °F

Location of LewistonLocation

Past Weather in Lewiston — Graph

°F

Lewiston Temperature Yesterday

Maximum temperature yesterday: 93 °F (at 2:56 PM)
Minimum temperature yesterday: 62 °F (at 5:56 AM)
Average temperature yesterday: 78 °F

High & Low Weather Summary for the Past Weeks

 TemperatureHumidityPressure
High98 °F (Aug 14, 2:56 PM)61% (Aug 13, 5:56 AM)30.19 "Hg (Aug 13, 5:56 AM)
Low51 °F (Aug 23, 5:56 AM)6% (Aug 21, 6:56 PM)29.62 "Hg (Aug 21, 4:56 PM)
Average77 °F28%29.92 "Hg
* Reported Aug 12 10:56 PM — Aug 27 10:56 PM, Lewiston, Weather by CustomWeather, © 2016

Note: Actual official high and low records may vary slightly from our data, if they occured in-between our weather recording intervals... More about our weather records

Advertising

Lewiston Weather History for the Previous 24 Hours

Scroll right to see more
 ConditionsComfort  
Time TempWeatherWind HumidityBarometerVisibility
10:56 PM
Sat, Aug 27
79 °FClear.14 mph35%29.78 "Hg10 mi
9:56 PM82 °FClear.14 mph29%29.75 "Hg10 mi
8:56 PM83 °FClear.9 mph24%29.75 "Hg10 mi
7:56 PM85 °FSunny.12 mph21%29.71 "Hg10 mi
6:56 PM87 °FSunny.15 mph18%29.70 "Hg10 mi
5:56 PM90 °FSunny.20 mph18%29.69 "Hg10 mi
4:56 PM89 °FSunny.9 mph19%29.68 "Hg10 mi
3:56 PM90 °FSunny.16 mph18%29.67 "Hg10 mi
2:56 PM93 °FSunny.8 mph16%29.67 "Hg10 mi
1:56 PM92 °FSunny.No wind16%29.69 "Hg10 mi
12:56 PM89 °FSunny.N/A19%29.71 "Hg10 mi
11:56 AM87 °FSunny.5 mph20%29.73 "Hg10 mi
10:56 AM82 °FSunny.6 mph22%29.75 "Hg10 mi
9:56 AM75 °FSunny.8 mph30%29.77 "Hg10 mi
8:56 AM71 °FSunny.6 mph35%29.78 "Hg10 mi
7:56 AM67 °FSunny.6 mph39%29.79 "Hg10 mi
6:56 AM64 °FClear.5 mph41%29.78 "Hg10 mi
5:56 AM62 °FClear.3 mph43%29.77 "Hg10 mi
4:56 AM63 °FClear.5 mph41%29.76 "Hg10 mi
3:56 AM65 °FClear.3 mph37%29.76 "Hg10 mi
2:56 AM65 °FClear.No wind36%29.77 "Hg10 mi
1:56 AM69 °FClear.No wind32%29.77 "Hg10 mi
12:56 AM69 °FClear.5 mph31%29.78 "Hg10 mi
Weather by CustomWeather, © 2016

See weather overviewHow to use our weather pages